Regional Weather Roundup
Issued by NWS

Home | Current Version | Previous Version | Text Only | Print | Product List | Glossary Off
Versions: 1 2 3 4 5 6 7 8 9 10 11 12 13 14 15 16 17 18 19 20 21 22 23 24 25 26 27 28 29 30 31 32 33 34 35 36 37 38 39 40 41 42 43 44 45 46 47 48 49 50

000
ASUS43 KOAX 171810
RWRNE

WEATHER ROUNDUP FOR NEBRASKA
NATIONAL WEATHER SERVICE OMAHA NE
100 PM CDT THU APR 17 2014

NOTES: SATELLITE DATA IS BEING USED TO AUGMENT CLOUD COVER ABOVE
       12000 FEET.
       "FAIR" INDICATES FEW OR NO CLOUDS BELOW 12,000 FEET WITH NO
       SIGNIFICANT WEATHER AND/OR OBSTRUCTIONS TO VISIBILITY.

  * THESE STATIONS DO NOT REPORT WEATHER SUCH AS RAIN...SNOW OR FOG.

NEZ001>004-019>022-054>056-171900-
NEBRASKA PANHANDLE

CITY           SKY/WX    TMP DP  RH WIND       PRES   REMARKS
SCOTTSBLUFF    CLOUDY    46  35  65 SE14      30.12F
6HR MIN TEMP:  33; 6HR MAX TEMP:  46;

ALLIANCE       CLOUDY    38  31  76 S16       30.15F WCI  29
6HR MIN TEMP:  31; 6HR MAX TEMP:  39;

CHADRON        CLOUDY    42  34  73 S14       30.12F
6HR MIN TEMP:  33; 6HR MAX TEMP:  42;

KIMBALL        PTSUNNY   45  36  69 SE10      30.10F
SIDNEY         CLOUDY    38  34  85 SE17      30.15F FOG     WCI  28
6HR MIN TEMP:  31; 6HR MAX TEMP:  38;

$$

NEZ057>060-069>072-079>082-171900-
SOUTHWEST NEBRASKA

CITY           SKY/WX    TMP DP  RH WIND       PRES   REMARKS
NORTH PLATTE   MOSUNNY   42  26  53 VRB5      30.25F
6HR MIN TEMP:  28; 6HR MAX TEMP:  42;

IMPERIAL       CLOUDY    38  30  73 SE14      30.24F WCI  30
6HR MIN TEMP:  30; 6HR MAX TEMP:  39;

LEXINGTON      SUNNY     40  29  62 SE6       30.29F
MCCOOK         SUNNY     43  29  57 VRB7      30.29F
6HR MIN TEMP:  31; 6HR MAX TEMP:  43;

OGALLALA       CLOUDY    37  29  71 S12G17    30.23F WCI  30
$$

NEZ005>010-023>029-035>040-094-171900-
NORTH CENTRAL NEBRASKA

CITY           SKY/WX    TMP DP  RH WIND       PRES   REMARKS
VALENTINE      FLURRIES  38  22  52 SE12      30.24F WCI  30
6HR MIN TEMP:  19; 6HR MAX TEMP:  42; 6HR PCP: TRACE;

AINSWORTH      MOSUNNY   44  24  46 SE12      30.24F
BROKEN BOW     SUNNY     43  24  47 S8        30.27F
6HR MIN TEMP:  28; 6HR MAX TEMP:  43;

O`NEILL        SUNNY     42  18  38 CALM      30.30F
ORD            SUNNY     45  23  42 SE8       30.28F
6HR MIN TEMP:  28; 6HR MAX TEMP:  45;

THEDFORD       MOSUNNY   46  22  39 SE14      30.23F
$$

NEZ041-046>049-061>064-073>077-083>087-171900-
SOUTH CENTRAL NEBRASKA

CITY           SKY/WX    TMP DP  RH WIND       PRES   REMARKS
GRAND ISLAND   FAIR      44  25  47 CALM      30.31F
6HR MIN TEMP:  31; 6HR MAX TEMP:  45;

AURORA         FAIR      45  27  50 N3        30.30F
HASTINGS       FAIR      44  26  49 E3        30.29F
6HR MIN TEMP:  31; 6HR MAX TEMP:  44;

HEBRON         FAIR      44  28  52 N7        30.30F
HOLDREGE       FAIR      40  28  63 SE5       30.30F
KEARNEY *      FAIR      41  27  56 NE5       30.30F
YORK           FAIR      45  27  49 NE7       30.30F
$$

NEZ011>018-030>034-042>045-171900-
NORTHEAST NEBRASKA

CITY           SKY/WX    TMP DP  RH WIND       PRES   REMARKS
NORFOLK        FAIR      45  22  40 CALM      30.30F
6HR MIN TEMP:  30; 6HR MAX TEMP:  45;

ALBION         FAIR      44  22  41 E3        30.30F
BLAIR          FAIR      42  27  54 N6        30.30F
COLUMBUS *     FAIR      43  27  52 E6        30.32F
FREMONT        FAIR      44  26  48 CALM      30.32F
TEKAMAH        FAIR      45  26  47 VRB3      30.33F
6HR MIN TEMP:  32; 6HR MAX TEMP:  46;

$$

NEZ050>053-065>068-078-088>093-171900-
SOUTHEAST NEBRASKA

CITY           SKY/WX    TMP DP  RH WIND       PRES   REMARKS
LINCOLN        FAIR      48  27  44 VRB5      30.32F
6HR MIN TEMP:  33; 6HR MAX TEMP:  48;

OMAHA EPPLEY   FAIR      46  26  45 NW9       30.32F
6HR MIN TEMP:  32; 6HR MAX TEMP:  46;

BEATRICE       FAIR      45  26  47 N8        30.30F
FALLS CITY     FAIR      46  28  49 N9        30.30F
6HR MIN TEMP:  35; 6HR MAX TEMP:  47;

NEBRASKA CITY  FAIR      43  28  56 N7G16     30.30F
PLATTSMOUTH    FAIR      44  25  48 N6        30.30F
$$

NEZ044-045-051>053-067-171900-
OMAHA AREA

CITY           SKY/WX    TMP DP  RH WIND       PRES   REMARKS
OMAHA EPPLEY   FAIR      46  26  45 NW9       30.32F
6HR MIN TEMP:  32; 6HR MAX TEMP:  46;

BLAIR          FAIR      42  27  54 N6        30.30F
FREMONT        FAIR      44  26  48 CALM      30.32F
MILLARD        FAIR      43  26  51 CALM      30.31F
OFFUTT AFB     FAIR      44  28  51 W2        30.31F
PLATTSMOUTH    FAIR      44  25  48 N6        30.30F
WAHOO          FAIR      46  23  41 N3        30.31F
$$



USA.gov is the U.S. government's official web portal to all federal, state and local government web resources and services.